Tracking 27112 objects as of 27-Mar-2023
HD Live streaming from Space Station
objects crossing your sky now

SL-16 R/B DEB

Track SL-16 R/B DEB now!
10-day predictions


NORAD ID: 39719
Int'l Code: 1992-093KK
Perigee: 842.8 km
Apogee: 988.4 km
Inclination: 71.3 °
Period: 103.2 minutes
Semi major axis: 7286 km
RCS: Unknown
Launch date: December 25, 1992
Source: Commonwealth of Independent States (former USSR) (CIS)
Launch site: TYURATAM MISSILE AND SPACE COMPLEX (TTMTR)

Note: This is SATELLITE DEBRIS
Your satellite tracking list
Your tracking list is empty




NASA's NSSDC Master Catalog

Two Line Element Set (TLE):
1 39719U 92093KK  23085.75639122  .00000189  00000-0  16312-3 0  9999
2 39719  71.2964  85.8867 0099942 237.0349 297.7370 13.95777057455373
Source of the keplerian elements: AFSPC